Tracking 28052 objects as of 25-Sep-2023
HD Live streaming from Space Station
objects crossing your sky now

CLUSTER II-FM6

Track CLUSTER II-FM6 now!
CLUSTER II-FM6 is classified as:


NORAD ID: 26410
Int'l Code: 2000-041A
Perigee: 17,006.9 km
Apogee: 115,861.4 km
Inclination: 136.9 °
Period: 3,258.4 minutes
Semi major axis: 72805 km
RCS: 1.9953 m2 (large)
Launch date: July 16, 2000
Source: European Space Agency (ESA)
Launch site: TYURATAM MISSILE AND SPACE COMPLEX (TTMTR)
Your satellite tracking list
Your tracking list is empty




NASA's NSSDC Master Catalog

Two Line Element Set (TLE):
1 26410U 00041A   23269.74643595 -.00000207  00000-0  00000+0 0  9992
2 26410 136.8695 353.3853 6788976 207.7045   0.4285  0.44193644 27631
Source of the keplerian elements: AFSPC